Home   Weather   Bridgeport   Past weeks

Flag for USA Past Weather in Bridgeport, Connecticut, USA — Yesterday and Last 2 Weeks

Now
39 °F

Light rain. Overcast.


Feels Like: 31 °F
Forecast: 35 / 40 °F
Wind: 14 mph from East

Location: Sikorsky Memorial Airport

Current Time: Jan 17, 2017 at 4:29:14 pm

Latest Report: Jan 17, 2017 at 3:52 pm


Visibility: 8 mi

Pressure: 30.13 "Hg

Humidity: 73%

Dew Point: 31 °F

Location of BridgeportLocation

Past Weather in Bridgeport — Graph

°F

Bridgeport Temperature Yesterday

Maximum temperature yesterday: 41 °F (at 3:52 pm)
Minimum temperature yesterday: 23 °F (at 2:52 am)
Average temperature yesterday: 33 °F

High & Low Weather Summary for the Past Weeks

 TemperatureHumidityPressure
High55 °F (Jan 13, 4:52 am)93% (Jan 3, 10:37 pm)30.75 "Hg (Jan 3, 10:37 pm)
Low10 °F (Jan 9, 5:52 am)31% (Jan 4, 7:52 pm)29.42 "Hg (Jan 4, 3:52 am)
Average34 °F68%30.19 "Hg
* Reported Jan 2 2:52 pm — Jan 17 2:52 pm, Bridgeport, Weather by CustomWeather, © 2017

Note: Actual official high and low records may vary slightly from our data, if they occured in-between our weather recording intervals... More about our weather records

Advertising

Bridgeport Weather History for the Previous 24 Hours

Scroll right to see more
 ConditionsComfort  
Time TempWeatherWind HumidityBarometerVisibility
2:52 pm
Tue, Jan 17
40 °FLight rain. Overcast.10 mph70%30.13 "Hg10 mi
1:52 pm40 °FLight rain. Overcast.7 mph77%30.15 "Hg7 mi
12:52 pm40 °FCloudy.5 mph77%30.17 "Hg6 mi
11:52 am41 °FLight rain. Overcast.3 mph65%30.20 "Hg7 mi
10:52 am41 °FLight rain. Overcast.No wind62%30.23 "Hg8 mi
9:52 am42 °FOvercast.3 mph57%30.23 "Hg8 mi
8:52 am40 °FOvercast.No wind65%30.23 "Hg8 mi
7:52 am38 °FOvercast.3 mph68%30.23 "Hg8 mi
6:52 am36 °FMostly cloudy.No wind73%30.22 "Hg9 mi
5:52 am38 °FClear.No wind65%30.22 "Hg10 mi
4:52 am39 °FOvercast.5 mph62%30.22 "Hg10 mi
3:52 am39 °FPassing clouds.5 mph62%30.22 "Hg10 mi
2:52 am39 °FPassing clouds.3 mph62%30.23 "Hg10 mi
1:52 am39 °FOvercast.5 mph65%30.25 "Hg10 mi
12:52 am39 °FOvercast.3 mph73%30.25 "Hg10 mi
11:52 pm
Mon, Jan 16
39 °FOvercast.5 mph79%30.27 "Hg9 mi
10:52 pm38 °FOvercast.No wind76%30.29 "Hg10 mi
9:52 pm39 °FOvercast.7 mph76%30.31 "Hg10 mi
8:52 pm39 °FPassing clouds.6 mph73%30.32 "Hg10 mi
7:52 pm39 °FClear.9 mph70%30.33 "Hg10 mi
6:52 pm38 °FClear.12 mph70%30.32 "Hg10 mi
5:52 pm38 °FClear.6 mph63%30.34 "Hg10 mi
4:52 pm40 °FClear.5 mph60%30.34 "Hg10 mi
Weather by CustomWeather, © 2017

See weather overviewHow to use our weather pages